KD3TB Weather Reports


time (UTC)temp
F
wind
direction
speed
knots
gust
knots
rain 1hr
in
rain 24hr
in
rain mn
in
humidity
%
barometer
mb
20190519101703 59 81 0.0 0.0 0.00 0.01 0.01 92 1015.1
20190519100233 59 64 0.0 0.0 0.00 0.01 0.01 93 1015.1
20190519094736 59 64 0.0 0.9 0.00 0.01 0.01 93 1015.4
20190519093145 59 64 0.0 2.6 0.00 0.01 0.01 92 1015.6
20190519091705 58 301 0.0 0.0 0.01 0.01 0.01 92 1015.6
20190519090209 58 301 0.0 0.0 0.01 0.01 0.01 91 1015.6
20190519084658 58 301 0.0 0.9 0.01 0.01 0.01 90 1015.1
20190519083232 57 289 0.0 0.0 0.01 0.01 0.01 87 1015.2
20190519081754 57 289 0.0 0.0 0.00 0.00 0.00 86 1015.2
20190519080220 57 289 0.0 0.0 0.00 0.00 0.00 85 1015.2
20190519074727 57 289 0.0 0.0 0.00 0.00 0.00 84 1015.0
20190519073112 57 289 0.0 0.0 0.00 0.00 0.00 84 1015.1
20190519071631 57 289 0.0 0.0 0.00 0.00 0.00 83 1014.9
20190519070141 57 289 0.0 0.0 0.00 0.00 0.00 83 1015.0
20190519064700 57 289 0.0 0.0 0.00 0.00 0.00 83 1014.9
20190519063118 57 289 0.0 0.0 0.00 0.00 0.00 81 1015.1
20190519061615 57 289 0.0 0.0 0.00 0.00 0.00 80 1015.1
20190519060116 57 289 0.0 0.0 0.00 0.00 0.00 80 1015.1
20190519054712 57 289 0.0 0.0 0.00 0.00 0.00 79 1015.2
20190519053150 58 289 0.0 0.0 0.00 0.00 0.00 79 1015.1
20190519051812 58 289 0.0 0.0 0.00 0.00 0.00 77 1015.2
20190519050154 59 289 0.0 0.0 0.00 0.00 0.00 76 1015.1
20190519044557 59 289 0.0 0.0 0.00 0.00 0.00 74 1015.2
20190519043138 60 289 0.0 0.0 0.00 0.00 0.00 74 1015.6
20190519041611 60 289 0.0 0.0 0.00 0.00 0.00 73 1015.2
20190519040105 61 289 0.0 0.0 0.00 0.00 0.00 76 1015.2
20190519034606 62 289 0.0 0.0 0.00 0.00 0.00 79 1015.1
20190519033113 62 289 0.0 0.0 0.00 0.00 0.00 80 1015.2
20190519031603 63 289 0.0 0.9 0.00 0.00 0.00 83 1015.2
20190519030216 63 259 0.0 0.0 0.00 0.00 0.00 80 1015.1
20190519024612 64 259 0.0 0.0 0.00 0.00 0.00 79 1014.8
20190519023133 65 259 0.0 0.0 0.00 0.00 0.00 79 1014.7
20190519021549 65 286 0.0 1.7 0.00 0.00 0.00 80 1014.6
20190519020233 64 284 0.0 0.0 0.00 0.00 0.00 80 1014.1
20190519014551 65 284 0.0 0.0 0.00 0.00 0.00 79 1014.1
20190519013043 65 284 0.0 0.0 0.00 0.00 0.00 76 1013.6
20190519011613 66 284 0.0 0.0 0.00 0.00 0.00 74 1013.5
20190519010126 67 284 0.0 0.0 0.00 0.00 0.00 72 1013.3
20190519004610 67 284 0.0 0.0 0.00 0.00 0.00 68 1013.2
20190519003058 69 284 0.0 0.0 0.00 0.00 0.00 66 1013.1
20190519001612 70 284 0.0 0.0 0.00 0.00 0.00 63 1012.6
20190519000043 71 284 0.0 0.0 0.00 0.01 0.00 58 1012.5
20190518234603 73 284 0.0 0.0 0.00 0.01 0.00 56 1012.5
20190518233058 74 284 0.0 0.0 0.00 0.01 0.00 55 1012.4
20190518231627 74 284 0.0 0.0 0.00 0.01 0.00 50 1012.3
20190518230127 74 284 0.0 0.0 0.00 0.08 0.00 50 1012.1
20190518224545 75 284 0.0 0.0 0.00 0.08 0.00 44 1012.0
20190518223032 75 284 0.0 0.0 0.00 0.08 0.00 44 1012.0
20190518221622 75 284 0.0 0.9 0.00 0.08 0.00 46 1012.0
20190518220104 73 284 0.0 0.0 0.00 0.08 0.00 50 1012.1
20190518214604 74 284 0.0 0.0 0.00 0.08 0.00 50 1012.0
20190518213044 75 284 0.0 0.0 0.00 0.08 0.00 44 1012.1
20190518211614 75 284 0.0 0.0 0.00 0.08 0.00 41 1012.1
20190518210059 76 278 0.0 2.6 0.00 0.08 0.00 40 1012.1
20190518204530 77 270 0.0 1.7 0.00 0.08 0.00 38 1012.0
20190518203106 77 266 0.9 4.3 0.00 0.08 0.00 35 1011.9
20190518201529 77 285 0.0 2.6 0.00 0.08 0.00 32 1011.6
20190518200031 78 308 0.0 4.3 0.00 0.08 0.00 33 1011.7
20190518194523 79 284 0.0 2.6 0.00 0.08 0.00 30 1011.6
20190518193036 78 274 0.0 2.6 0.00 0.08 0.00 32 1011.9
20190518191526 78 281 0.0 2.6 0.00 0.08 0.00 35 1012.0
20190518190034 76 297 0.9 6.1 0.00 0.08 0.00 36 1012.3
20190518184529 74 270 0.0 0.9 0.00 0.08 0.00 36 1012.5
20190518183048 75 270 0.0 3.5 0.00 0.08 0.00 35 1012.6
20190518181549 76 265 0.9 4.3 0.00 0.08 0.00 37 1012.6
20190518180102 76 296 0.0 2.6 0.00 0.08 0.00 32 1012.8
20190518174529 75 61 0.0 1.7 0.00 0.08 0.00 34 1013.0
20190518173029 75 275 0.0 0.0 0.00 0.08 0.00 35 1013.2
20190518171514 74 273 0.0 4.3 0.00 0.08 0.00 37 1013.2
20190518170021 74 85 0.0 0.9 0.00 0.08 0.00 36 1013.4
20190518164519 74 288 1.7 4.3 0.00 0.08 0.00 38 1013.5
20190518163009 73 318 0.9 5.2 0.00 0.08 0.00 39 1013.5
20190518161507 73 307 0.0 5.2 0.00 0.08 0.00 37 1013.4
20190518160031 72 338 0.0 2.6 0.00 0.08 0.00 39 1013.5
20190518154504 72 328 0.0 1.7 0.00 0.08 0.00 36 1013.5
20190518153006 71 327 0.0 3.5 0.00 0.08 0.00 40 1013.4
20190518151741 70 77 0.0 1.7 0.00 0.08 0.00 40 1013.5
20190518150148 69 49 0.0 1.7 0.00 0.08 0.00 42 1013.5
20190518144627 67 51 0.0 3.5 0.00 0.08 0.00 47 1013.6
20190518143147 66 76 0.0 3.5 0.00 0.08 0.00 46 1013.6
20190518141611 65 355 0.0 3.5 0.00 0.08 0.00 49 1013.5
20190518140134 65 321 0.0 3.5 0.00 0.08 0.00 52 1013.5
20190518134714 64 51 0.0 0.9 0.00 0.08 0.00 55 1013.3
20190518133114 62 56 0.9 5.2 0.00 0.08 0.00 56 1013.2
20190518131628 62 5 0.9 5.2 0.00 0.08 0.00 58 1013.0
20190518130118 61 61 0.0 3.5 0.00 0.08 0.00 64 1013.0
20190518124608 59 53 0.0 5.2 0.00 0.08 0.00 70 1012.9
20190518123052 58 105 0.0 3.5 0.00 0.08 0.00 84 1012.5
20190518121546 57 329 0.0 3.5 0.00 0.08 0.00 95 1012.5
20190518120206 56 38 0.0 0.0 0.00 0.08 0.00 99 1012.3
20190518114604 55 38 0.0 0.9 0.00 0.08 0.00 100 1012.0
20190518113053 55 31 0.0 0.0 0.00 0.08 0.00 100 1012.0
20190518111649 54 31 0.0 0.0 0.00 0.08 0.00 100 1011.5
20190518110057 54 311 0.0 0.9 0.00 0.08 0.00 100 1011.4
20190518104538 54 303 0.0 0.0 0.00 0.08 0.00 100 1011.1
20190518103106 54 303 0.0 0.0 0.00 0.08 0.00 100 1011.0